When you browse on this site, cookies collect data to enhance your experience and personalize the content and advertising you see.
Visit our Privacy Policy to learn more. By continuing to use the site, you agree to this use of cookies and data.
  • In Austria
  • List of Countries
  • For 7 days
  • Water Temperature
  • Satellite Maps
  • Weather Map
  • News
  • Weather Widgets
  • user-avatar
    Login

    Hourly Weather Zajaczki

    Today, 19 December, Wednesday

    Time Temperature Precipitation Wind Pressure Humidity
    00:00 -2°C° 0 mm 3 mps 751 mmHg 89%
    01:00 -2°C° 0 mm 3 mps 751 mmHg 88%
    02:00 -3°C° 0 mm 4 mps 750 mmHg 87%
    03:00 -3°C° 0 mm 4 mps 750 mmHg 87%
    04:00 -3°C° 0 mm 4 mps 750 mmHg 86%
    05:00 -3°C° 0 mm 4 mps 750 mmHg 86%
    06:00 -4°C° 0 mm 4 mps 750 mmHg 86%
    07:00 -4°C° 0 mm 4 mps 749 mmHg 88%
    08:00 -5°C° 0 mm 5 mps 749 mmHg 85%
    09:00 -4°C° 0 mm 5 mps 749 mmHg 82%
    10:00 -4°C° 0 mm 6 mps 749 mmHg 79%
    11:00 -2°C° 0 mm 5 mps 748 mmHg 77%
    12:00 -2°C° 0 mm 5 mps 748 mmHg 75%
    13:00 -1°C° 0 mm 5 mps 748 mmHg 73%
    14:00 -2°C° 0 mm 5 mps 747 mmHg 75%
    15:00 -2°C° 0 mm 5 mps 747 mmHg 76%
    16:00 -2°C° 0 mm 5 mps 747 mmHg 77%
    17:00 -2°C° 0 mm 5 mps 747 mmHg 77%
    18:00 -2°C° 0 mm 5 mps 746 mmHg 78%
    19:00 -4°C° 0 mm 5 mps 746 mmHg 78%
    20:00 -4°C° 0 mm 5 mps 746 mmHg 77%
    21:00 -4°C° 0 mm 5 mps 746 mmHg 77%
    22:00 -4°C° 0 mm 5 mps 746 mmHg 77%
    23:00 -3°C° 0 mm 4 mps 746 mmHg 76%

    Tomorrow, 20 December, Thursday

    Time Temperature Precipitation Wind Pressure Humidity
    00:00 -2°C° 0 mm 4 mps 746 mmHg 76%
    01:00 -2°C° 0 mm 4 mps 745 mmHg 75%
    02:00 -2°C° 0 mm 4 mps 745 mmHg 75%
    03:00 -1°C° 0 mm 3 mps 745 mmHg 75%
    04:00 -1°C° 0 mm 3 mps 745 mmHg 75%
    05:00 -1°C° 0 mm 3 mps 745 mmHg 75%
    06:00 -1°C° 0 mm 3 mps 745 mmHg 74%
    07:00 -3°C° 0 mm 4 mps 745 mmHg 74%
    08:00 -3°C° 0 mm 4 mps 745 mmHg 74%
    09:00 -3°C° 0 mm 4 mps 745 mmHg 73%
    10:00 -3°C° 0 mm 4 mps 745 mmHg 73%
    11:00 -3°C° 0 mm 4 mps 745 mmHg 73%
    12:00 -2°C° 0 mm 4 mps 745 mmHg 74%
    13:00 -2°C° 0 mm 4 mps 744 mmHg 74%
    14:00 -1°C° 0.1 mm 3 mps 744 mmHg 77%
    15:00 -1°C° 0.1 mm 3 mps 744 mmHg 80%
    16:00 -1°C° 0.1 mm 3 mps 744 mmHg 82%
    17:00 -1°C° 0.1 mm 3 mps 744 mmHg 84%
    18:00 -1°C° 0.1 mm 3 mps 745 mmHg 86%
    19:00 -1°C° 0.1 mm 3 mps 745 mmHg 88%
    20:00 -1°C° 0.1 mm 3 mps 745 mmHg 89%
    21:00 -2°C° 0.1 mm 4 mps 745 mmHg 90%
    22:00 -1°C° 0.1 mm 4 mps 745 mmHg 91%
    23:00 -1°C° 0 mm 4 mps 745 mmHg 91%

    Day after tomorrow, 21 December, Friday

    Time Temperature Precipitation Wind Pressure Humidity
    00:00 -2°C° 0 mm 4 mps 744 mmHg 90%
    01:00 -2°C° 0 mm 4 mps 744 mmHg 90%
    02:00 -2°C° 0 mm 4 mps 744 mmHg 90%
    03:00 -2°C° 0 mm 4 mps 744 mmHg 90%
    04:00 -1°C° 0 mm 4 mps 744 mmHg 90%
    05:00 -1°C° 0 mm 4 mps 743 mmHg 90%
    06:00 -1°C° 0 mm 4 mps 743 mmHg 90%
    07:00 -1°C° 0 mm 4 mps 743 mmHg 90%
    08:00 -1°C° 0.1 mm 4 mps 743 mmHg 89%
    09:00 0°C° 0.1 mm 5 mps 743 mmHg 88%
    10:00 0°C° 0.1 mm 5 mps 742 mmHg 88%
    11:00 0°C° 0 mm 5 mps 742 mmHg 87%
    12:00 0°C° 0 mm 5 mps 741 mmHg 86%
    13:00 +1°C° 0 mm 5 mps 740 mmHg 86%
    14:00 +1°C° 0.2 mm 5 mps 739 mmHg 86%
    15:00 0°C° 0.2 mm 5 mps 739 mmHg 87%
    16:00 0°C° 0.2 mm 5 mps 738 mmHg 88%
    17:00 0°C° 0.5 mm 5 mps 737 mmHg 88%
    18:00 0°C° 0.5 mm 5 mps 737 mmHg 88%
    19:00 0°C° 0.5 mm 5 mps 736 mmHg 88%
    20:00 +1°C° 0.9 mm 6 mps 735 mmHg 88%
    21:00 +1°C° 0.9 mm 6 mps 734 mmHg 89%
    22:00 +1°C° 0.9 mm 6 mps 734 mmHg 90%
    23:00 +2°C° 0.4 mm 6 mps 733 mmHg 89%

    22 December, Saturday

    Time Temperature Precipitation Wind Pressure Humidity
    00:00 +3°C° 0.4 mm 7 mps 733 mmHg 88%
    01:00 +4°C° 0.4 mm 7 mps 733 mmHg 86%
    02:00 +4°C° 0.1 mm 7 mps 733 mmHg 85%
    03:00 +3°C° 0.1 mm 7 mps 733 mmHg 84%
    04:00 +3°C° 0.1 mm 7 mps 733 mmHg 83%
    05:00 +3°C° 0 mm 6 mps 733 mmHg 83%
    06:00 +2°C° 0 mm 6 mps 733 mmHg 84%
    07:00 +2°C° 0 mm 6 mps 734 mmHg 84%
    08:00 +2°C° 0 mm 6 mps 734 mmHg 84%
    09:00 +3°C° 0 mm 6 mps 734 mmHg 84%
    10:00 +3°C° 0 mm 6 mps 734 mmHg 84%
    11:00 +4°C° 0.1 mm 6 mps 734 mmHg 84%
    12:00 +4°C° 0.1 mm 6 mps 734 mmHg 83%
    13:00 +4°C° 0.1 mm 6 mps 734 mmHg 83%
    14:00 +4°C° 0.9 mm 6 mps 734 mmHg 84%
    15:00 +4°C° 0.9 mm 6 mps 734 mmHg 85%
    16:00 +4°C° 0.9 mm 6 mps 734 mmHg 85%
    17:00 +4°C° 0.4 mm 6 mps 734 mmHg 85%
    18:00 +4°C° 0.4 mm 7 mps 734 mmHg 85%
    19:00 +4°C° 0.4 mm 7 mps 734 mmHg 85%
    20:00 +4°C° 0.1 mm 8 mps 735 mmHg 82%
    21:00 +3°C° 0.1 mm 9 mps 735 mmHg 79%
    22:00 +3°C° 0.1 mm 10 mps 736 mmHg 76%
    23:00 +2°C° 0.1 mm 10 mps 737 mmHg 77%

    23 December, Sunday

    Time Temperature Precipitation Wind Pressure Humidity
    00:00 +2°C° 0.1 mm 10 mps 738 mmHg 77%
    01:00 +1°C° 0.1 mm 9 mps 739 mmHg 78%
    02:00 +1°C° 0 mm 8 mps 740 mmHg 81%
    03:00 0°C° 0 mm 7 mps 741 mmHg 84%
    04:00 +1°C° 0 mm 5 mps 742 mmHg 87%
    05:00 +1°C° 0.1 mm 4 mps 742 mmHg 88%
    06:00 0°C° 0.1 mm 4 mps 742 mmHg 90%
    07:00 +1°C° 0.1 mm 3 mps 743 mmHg 92%
    08:00 +2°C° 0.1 mm 2 mps 743 mmHg 92%
    09:00 +2°C° 0.1 mm 2 mps 744 mmHg 92%
    10:00 +3°C° 0.1 mm 2 mps 744 mmHg 91%
    11:00 +3°C° 0.2 mm 2 mps 744 mmHg 90%
    12:00 +3°C° 0.2 mm 2 mps 744 mmHg 89%
    13:00 +4°C° 0.2 mm 2 mps 744 mmHg 88%
    14:00 +4°C° 0.2 mm 2 mps 744 mmHg 88%
    15:00 +3°C° 0.2 mm 3 mps 744 mmHg 89%
    16:00 +3°C° 0.2 mm 3 mps 744 mmHg 90%
    17:00 +3°C° 0.1 mm 4 mps 744 mmHg 89%
    18:00 +3°C° 0.1 mm 4 mps 744 mmHg 88%
    19:00 +3°C° 0.1 mm 4 mps 745 mmHg 87%
    20:00 +3°C° 0 mm 4 mps 745 mmHg 87%
    21:00 +1°C° 0 mm 4 mps 745 mmHg 87%
    22:00 +1°C° 0 mm 4 mps 745 mmHg 87%
    23:00 +1°C° 0.1 mm 4 mps 745 mmHg 87%

    24 December, Monday

    Time Temperature Precipitation Wind Pressure Humidity
    00:00 +1°C° 0.1 mm 5 mps 744 mmHg 87%
    01:00 +1°C° 0.1 mm 5 mps 744 mmHg 87%
    02:00 +1°C° 0.1 mm 5 mps 744 mmHg 87%
    03:00 +1°C° 0.1 mm 5 mps 744 mmHg 87%
    04:00 +1°C° 0.1 mm 6 mps 744 mmHg 87%
    05:00 +1°C° 0.7 mm 6 mps 744 mmHg 87%
    06:00 +2°C° 0.7 mm 7 mps 744 mmHg 86%
    07:00 +2°C° 0.7 mm 7 mps 744 mmHg 85%
    08:00 +2°C° 0.1 mm 7 mps 744 mmHg 82%
    09:00 +2°C° 0.1 mm 7 mps 745 mmHg 80%
    10:00 +2°C° 0.1 mm 7 mps 746 mmHg 78%
    11:00 +2°C° 0 mm 7 mps 746 mmHg 77%
    12:00 +2°C° 0 mm 7 mps 747 mmHg 76%
    13:00 +2°C° 0 mm 7 mps 747 mmHg 75%
    14:00 +1°C° 0 mm 6 mps 748 mmHg 76%
    15:00 +1°C° 0 mm 5 mps 748 mmHg 78%
    16:00 +1°C° 0 mm 4 mps 749 mmHg 80%
    17:00 +1°C° 0 mm 4 mps 749 mmHg 82%
    18:00 0°C° 0 mm 4 mps 750 mmHg 83%
    19:00 0°C° 0 mm 4 mps 750 mmHg 85%
    20:00 0°C° 0.1 mm 4 mps 750 mmHg 85%
    21:00 0°C° 0.1 mm 4 mps 751 mmHg 85%
    22:00 0°C° 0.1 mm 4 mps 751 mmHg 86%
    23:00 0°C° 0 mm 4 mps 751 mmHg 85%
    Show more